, AK

(GMT )
Northway

Weather History for PAOR - November, 2012

Change the Weather History Date:

Tuesday, November 6, 2012

  Actual Average Record
Temperature  
Mean Temperature -6 °F -  
Max Temperature 6 °F 13 °F 29 °F (1970)
Min Temperature -20 °F -2 °F -37 °F (1956)
Degree Days  
Heating Degree Days 71    
Moisture  
Dew Point -5 °F    
Average Humidity 81    
Maximum Humidity 85    
Minimum Humidity 72    
Precipitation  
Precipitation 0.00 in - - ()
Snow  
Snow 0.00 in - - ()
Snow Depth 9.00 in    
Sea Level Pressure  
Sea Level Pressure 30.30 in    
Wind  
Wind Speed 3 mph (NW)    
Max Wind Speed 6 mph    
Max Gust Speed -    
Visibility 7 miles    
Events Snow    
Averages and records for this station are not official NWS values.
T = Trace of Precipitation, MM = Missing Value Source: NWS Daily Summary

Daily Weather History Graph

Daily Weather History Graph

Search for Another Location

Airport or City:

Trip Planner

Search our weather history database for the weather conditions in past years. The results will help you decide how hot, cold, wet, or windy it might be!

Date:

Astronomy

Nov. 06, 2012 Rise Set
Actual Time 8:21 AM AKST 4:00 PM AKST
Civil Twilight 7:28 AM AKST 4:53 PM AKST
Nautical Twilight 6:32 AM AKST 5:48 PM AKST
Astronomical Twilight 5:39 AM AKST 6:41 PM AKST
Moon 11:17 PM AKST (11/6) 1:56 PM AKST (11/6)
Length of Visible Light 9h 24m
Length of Day
7h 38m
Waning Gibbous, 51% of the Moon is Illuminated
Nov 6
Waning Gibbous
Nov 6
Last Quarter
Nov 13
New
Nov 20
First Quarter
Nov 28
Full

Hourly Weather History & Observations

Time (AKST) Temp. Windchill Dew Point Humidity Pressure Visibility Wind Dir Wind Speed Gust Speed Precip Events Conditions
12:53 AM 1.0 °F -8.7 °F -2.9 °F 83% 30.19 in 10.0 mi NW 4.6 mph - N/A   Mostly Cloudy
1:53 AM 1.0 °F -6.7 °F -2.9 °F 83% 30.21 in 10.0 mi WNW 3.5 mph - N/A   Overcast
3:53 AM 1.0 °F -8.7 °F -4.0 °F 79% 30.23 in 6.0 mi NW 4.6 mph - 0.00 in Snow Light Snow
4:53 AM 1.0 °F - -2.9 °F 83% 30.25 in 7.0 mi Calm Calm - 0.00 in Snow Light Snow
5:53 AM 1.9 °F -7.6 °F -2.9 °F 80% 30.26 in 10.0 mi NW 4.6 mph - 0.00 in   Overcast
6:44 AM 1.4 °F -8.3 °F -2.2 °F 85% 30.08 in 2.5 mi NW 4.6 mph - 0.00 in Snow Light Snow
6:53 AM 1.9 °F -5.6 °F -2.0 °F 83% 30.27 in 3.0 mi WNW 3.5 mph - 0.00 in Snow Light Snow
7:53 AM 1.9 °F - -2.0 °F 83% 30.29 in 2.5 mi Calm Calm - 0.00 in Snow Light Snow
8:08 AM 1.4 °F - -2.2 °F 85% 30.10 in 2.5 mi Calm Calm - 0.00 in Snow Light Snow
8:53 AM 1.9 °F -5.6 °F -2.0 °F 83% 30.30 in 2.5 mi NW 3.5 mph - 0.00 in Snow Light Snow
9:39 AM 1.4 °F -8.3 °F -2.2 °F 85% 30.13 in 3.0 mi NW 4.6 mph - 0.00 in Snow Light Snow
9:53 AM 3.0 °F -4.4 °F -2.0 °F 80% 30.32 in 4.0 mi NW 3.5 mph - 0.00 in Snow Light Snow
10:14 AM 1.4 °F -9.9 °F -2.2 °F 85% 30.14 in 7.0 mi NW 5.8 mph - 0.00 in Snow Light Snow
10:53 AM 3.0 °F -6.4 °F -2.0 °F 80% 30.34 in 9.0 mi WNW 4.6 mph - 0.00 in Snow Light Snow
11:53 AM 5.0 °F -2.1 °F -0.0 °F 80% 30.34 in 4.0 mi WNW 3.5 mph - 0.00 in Snow Light Snow
12:40 PM 5.0 °F -2.1 °F -0.4 °F 78% 30.16 in 2.5 mi NW 3.5 mph - 0.00 in Snow Light Snow
12:53 PM 5.0 °F -4.1 °F -0.0 °F 80% 30.35 in 2.0 mi WNW 4.6 mph - 0.00 in Snow Light Snow
1:05 PM 5.0 °F -4.1 °F -0.4 °F 78% 30.16 in 3.0 mi NW 4.6 mph - 0.00 in Snow Light Snow
1:53 PM 6.1 °F -2.8 °F 1.0 °F 80% 30.35 in 4.0 mi NNW 4.6 mph - 0.00 in Snow Light Snow
2:13 PM 6.8 °F -2.0 °F -0.4 °F 72% 30.17 in 9.0 mi NNW 4.6 mph - 0.00 in   Mostly Cloudy
2:53 PM 3.9 °F - -0.9 °F 80% 30.36 in 10.0 mi Calm Calm - 0.00 in   Mostly Cloudy
3:53 PM 1.0 °F - -2.9 °F 83% 30.38 in 10.0 mi Calm Calm - N/A   Mostly Cloudy
4:53 PM -0.9 °F -11.0 °F -6.0 °F 79% 30.40 in 10.0 mi NW 4.6 mph - N/A   Mostly Cloudy
5:53 PM 1.0 °F -8.7 °F -4.0 °F 79% 30.40 in 10.0 mi NW 4.6 mph - N/A   Scattered Clouds
6:53 PM -2.9 °F -11.2 °F -8.0 °F 79% 30.43 in 10.0 mi WNW 3.5 mph - N/A   Scattered Clouds
7:53 PM -4.0 °F -14.6 °F -9.0 °F 79% 30.45 in 10.0 mi NW 4.6 mph - N/A   Scattered Clouds
8:53 PM -6.0 °F - -9.9 °F 83% 30.48 in 10.0 mi Calm Calm - N/A   Scattered Clouds
9:53 PM -14.1 °F - -18.0 °F 82% 30.50 in 10.0 mi Calm Calm - N/A   Partly Cloudy
10:53 PM -18.0 °F - -22.0 °F 82% 30.53 in 10.0 mi Calm Calm - N/A   Partly Cloudy
11:53 PM -20.0 °F - -25.1 °F 78% 30.54 in 10.0 mi Calm Calm - N/A   Clear